GW2731 Weather Reports


time (UTC)temp
C
wind
direction
speed
KPH
gust
KPH
rain 1hr
cm
rain 24hr
cm
rain mn
cm
humidity
%
barometer
mb
20260510142708 17 350 0.0 3.2 0.00 0.00 0.00 88 1019.0
20260510142205 17 310 1.6 6.4 0.00 0.00 0.00 89 1019.3
20260510141702 17 260 1.6 6.4 0.00 0.00 0.00 90 1019.2
20260510141200 17 188 0.0 1.6 0.00 0.00 0.00 90 1019.3
20260510140656 17 188 0.0 0.0 0.00 0.00 0.00 91 1019.3
20260510140156 17 189 0.0 0.0 0.00 0.00 0.00 91 1019.3
20260510135651 17 189 0.0 0.0 0.00 0.00 0.00 91 1019.3
20260510135147 17 197 0.0 0.0 0.00 0.00 0.00 91 1019.5
20260510134644 16 199 0.0 0.0 0.00 0.00 0.00 91 1019.4
20260510134142 16 201 0.0 0.0 0.00 0.00 0.00 91 1019.6
20260510133638 16 212 0.0 3.2 0.00 0.00 0.00 90 1019.5
20260510133133 16 202 1.6 3.2 0.00 0.00 0.00 90 1019.2
20260510132630 16 201 0.0 1.6 0.00 0.00 0.00 90 1019.6
20260510132127 16 215 1.6 3.2 0.00 0.00 0.00 90 1019.5
20260510131624 17 240 1.6 6.4 0.00 0.00 0.00 90 1019.5
20260510131122 16 155 0.0 3.2 0.00 0.00 0.00 91 1019.5
20260510130618 17 142 0.0 1.6 0.00 0.00 0.00 91 1019.1
20260510130116 17 127 0.0 1.6 0.00 0.00 0.00 90 1018.9
20260510125612 17 111 0.0 1.6 0.00 0.00 0.00 89 1018.8
20260510125108 17 108 0.0 3.2 0.00 0.00 0.00 89 1018.8
20260510124605 17 107 0.0 1.6 0.00 0.00 0.00 89 1018.8
20260510124102 17 106 1.6 1.6 0.00 0.00 0.00 89 1018.5
20260510123556 17 105 0.0 0.0 0.00 0.00 0.00 89 1018.5
20260510123053 16 91 1.6 3.2 0.00 0.00 0.00 89 1018.3
20260510122549 17 95 1.6 4.8 0.00 0.00 0.00 89 1018.0
20260510122046 17 68 1.6 4.8 0.00 0.00 0.00 89 1017.7
20260510121543 16 121 0.0 1.6 0.00 0.00 0.00 90 1017.7
20260510121040 16 110 0.0 3.2 0.00 0.00 0.00 91 1017.7
20260510120538 16 99 1.6 3.2 0.00 0.00 0.00 91 1017.7
20260510120033 16 93 1.6 3.2 0.00 0.00 0.00 91 1017.2
20260510115530 16 92 1.6 3.2 0.00 0.00 0.00 92 1017.3
20260510115027 16 87 0.0 1.6 0.00 0.00 0.00 92 1017.1
20260510114522 16 82 1.6 3.2 0.00 0.00 0.00 93 1016.9
20260510114019 16 63 1.6 1.6 0.00 0.00 0.00 93 1016.7
20260510113514 16 40 3.2 4.8 0.00 0.00 0.00 94 1016.8
20260510113012 16 23 6.4 6.4 0.00 0.00 0.00 94 1016.7
20260510112509 16 113 3.2 3.2 0.00 0.00 0.00 93 1016.6
20260510112005 16 120 0.0 0.0 0.00 0.00 0.00 93 1016.5
20260510111501 16 120 0.0 0.0 0.00 0.00 0.00 92 1016.5
20260510110957 16 120 0.0 0.0 0.00 0.00 0.00 92 1016.2
20260510110454 16 120 0.0 1.6 0.00 0.00 0.00 92 1016.1
20260510105950 16 120 0.0 0.0 0.00 0.00 0.00 91 1016.1
20260510105445 16 120 0.0 0.0 0.00 0.00 0.00 91 1016.0
20260510104940 16 120 0.0 1.6 0.00 0.00 0.00 90 1016.0
20260510104437 16 120 0.0 0.0 0.00 0.00 0.00 90 1016.0
20260510103934 17 120 0.0 1.6 0.00 0.00 0.00 89 1016.1
20260510103431 17 120 0.0 0.0 0.00 0.00 0.00 89 1015.9
20260510102926 17 120 0.0 0.0 0.00 0.00 0.00 89 1015.9
20260510102422 17 119 0.0 0.0 0.00 0.00 0.00 89 1015.7
20260510101919 17 119 0.0 0.0 0.00 0.00 0.00 88 1015.6
20260510101418 17 119 0.0 0.0 0.00 0.00 0.00 89 1015.6
20260510100915 17 111 1.6 3.2 0.00 0.00 0.00 88 1015.6
20260510100412 17 125 0.0 0.0 0.00 0.00 0.00 87 1015.7
20260510095908 17 125 0.0 0.0 0.00 0.00 0.00 88 1015.7
20260510095403 17 124 1.6 1.6 0.00 0.00 0.00 88 1015.7
20260510094902 17 124 0.0 0.0 0.00 0.00 0.00 88 1015.6
20260510094357 17 125 0.0 0.0 0.00 0.00 0.00 88 1015.4
20260510093854 17 125 0.0 0.0 0.00 0.00 0.00 88 1015.7
20260510093350 17 125 0.0 0.0 0.00 0.00 0.00 86 1015.6
20260510092846 17 125 0.0 0.0 0.00 0.00 0.00 86 1015.6
20260510092343 17 124 1.6 1.6 0.00 0.00 0.00 85 1015.5
20260510091838 17 124 0.0 0.0 0.00 0.00 0.00 86 1015.2
20260510091335 17 124 0.0 0.0 0.00 0.00 0.00 84 1015.2
20260510090831 17 124 0.0 0.0 0.00 0.00 0.00 84 1015.2
20260510090323 17 100 0.0 1.6 0.00 0.00 0.00 83 1015.1
20260510085819 18 78 3.2 4.8 0.00 0.00 0.00 83 1014.9
20260510085318 18 102 1.6 3.2 0.00 0.00 0.00 82 1014.8
20260510084814 18 105 1.6 3.2 0.00 0.00 0.00 81 1014.6
20260510084312 18 85 4.8 4.8 0.00 0.00 0.00 81 1014.1
20260510083808 18 101 3.2 6.4 0.00 0.00 0.00 80 1014.3
20260510083305 18 32 4.8 12.9 0.00 0.00 0.00 78 1014.0
20260510082800 18 22 6.4 16.1 0.00 0.00 0.00 78 1013.8
20260510082258 18 33 1.6 9.7 0.00 0.00 0.00 78 1013.9
20260510081756 19 4 6.4 12.9 0.00 0.00 0.00 77 1013.6
20260510081253 20 3 12.9 22.5 0.00 0.00 0.00 75 1013.6
20260510080748 20 20 4.8 11.3 0.00 0.00 0.00 74 1012.9
20260510080244 20 95 1.6 6.4 0.00 0.00 0.00 72 1012.6
20260510075741 20 178 0.0 4.8 0.00 0.00 0.00 72 1012.2
20260510075239 19 203 9.7 22.5 0.00 0.00 0.00 74 1010.5
20260510074735 19 152 12.9 24.1 0.00 0.00 0.00 75 1010.3
20260510074232 19 161 3.2 12.9 0.00 0.00 0.00 76 1012.3
20260510073728 20 172 6.4 12.9 0.00 0.00 0.00 75 1013.3
20260510073224 20 158 6.4 17.7 0.00 0.00 0.00 74 1013.6
20260510072720 20 191 6.4 12.9 0.00 0.00 0.00 73 1013.8
20260510072217 20 197 8.0 11.3 0.00 0.00 0.00 72 1014.1
20260510071714 20 194 8.0 11.3 0.00 0.00 0.00 73 1014.4
20260510071210 20 193 8.0 14.5 0.00 0.00 0.00 75 1013.6
20260510070708 20 137 11.3 16.1 0.00 0.00 0.00 76 1014.2
20260510070205 20 202 8.0 14.5 0.00 0.00 0.00 76 1015.1
20260510065700 19 188 8.0 11.3 0.00 0.00 0.00 78 1016.2
20260510065157 19 197 6.4 11.3 0.00 0.00 0.00 78 1016.6
20260510064653 18 185 0.0 4.8 0.00 0.00 0.00 81 1016.1
20260510064150 18 178 0.0 1.6 0.00 0.00 0.00 83 1015.9
20260510063648 18 168 0.0 0.0 0.00 0.00 0.00 81 1015.5
20260510063144 18 169 0.0 0.0 0.00 0.00 0.00 81 1015.6
20260510062640 18 170 0.0 1.6 0.00 0.00 0.00 81 1015.5
20260510062136 18 161 3.2 3.2 0.00 0.00 0.00 80 1015.5
20260510061632 19 141 0.0 0.0 0.00 0.00 0.00 79 1015.6
20260510061129 19 145 1.6 1.6 0.00 0.00 0.00 78 1015.9
20260510060625 19 163 0.0 1.6 0.00 0.00 0.00 78 1016.0
20260510060122 20 171 3.2 4.8 0.00 0.00 0.00 76 1016.3
20260510055618 20 107 1.6 3.2 0.00 0.00 0.00 75 1016.4
20260510055117 20 135 0.0 0.0 0.00 0.00 0.00 76 1016.4
20260510054611 20 127 0.0 1.6 0.00 0.00 0.00 76 1016.5
20260510054106 20 99 1.6 3.2 0.00 0.00 0.00 77 1016.3
20260510053601 20 77 1.6 3.2 0.00 0.00 0.00 76 1016.4
20260510053058 20 24 3.2 4.8 0.00 0.00 0.00 75 1016.3
20260510052554 20 20 3.2 4.8 0.00 0.00 0.00 75 1016.6
20260510052050 20 12 4.8 6.4 0.00 0.00 0.00 74 1016.5
20260510051546 20 18 4.8 9.7 0.00 0.00 0.00 73 1016.3
20260510051043 19 235 3.2 3.2 0.00 0.00 0.00 78 1016.0
20260510050540 19 213 3.2 4.8 0.00 0.00 0.00 81 1015.9
20260510050037 20 150 0.0 0.0 0.00 0.00 0.00 83 1015.3
20260510045534 20 147 0.0 0.0 0.00 0.00 0.00 82 1015.3
20260510045030 19 147 0.0 0.0 0.00 0.00 0.00 82 1015.0
20260510044527 19 148 0.0 0.0 0.00 0.00 0.00 82 1015.1
20260510044025 19 149 0.0 0.0 0.00 0.00 0.00 82 1015.0
20260510043520 19 154 0.0 0.0 0.00 0.00 0.00 82 1014.8
20260510043015 19 154 0.0 0.0 0.00 0.00 0.00 82 1014.8
20260510042510 19 157 0.0 0.0 0.00 0.00 0.00 82 1014.8
20260510042005 19 157 0.0 0.0 0.00 0.00 0.00 80 1014.7
20260510041502 19 157 0.0 0.0 0.00 0.00 0.00 80 1014.5
20260510041000 19 157 0.0 0.0 0.00 0.00 0.00 81 1014.6
20260510040456 19 157 0.0 0.0 0.00 0.00 0.00 81 1014.4
20260510035952 19 156 0.0 0.0 0.00 0.00 0.00 77 1014.3
20260510035449 19 156 0.0 0.0 0.00 0.00 0.00 78 1014.4
20260510034948 19 156 0.0 0.0 0.00 0.00 0.00 78 1014.4
20260510034447 19 156 0.0 0.0 0.00 0.00 0.00 80 1014.2
20260510033943 19 156 0.0 0.0 0.00 0.00 0.00 79 1014.3
20260510033439 19 156 0.0 0.0 0.00 0.00 0.00 79 1014.4
20260510032937 19 156 0.0 0.0 0.00 0.00 0.00 79 1014.4
20260510032433 19 156 0.0 0.0 0.00 0.00 0.00 78 1014.5
20260510031928 19 156 0.0 0.0 0.00 0.00 0.00 78 1014.3
20260510031424 19 156 0.0 0.0 0.00 0.00 0.00 77 1014.4
20260510030919 19 156 0.0 0.0 0.00 0.00 0.00 77 1014.5
20260510030415 19 156 0.0 0.0 0.00 0.00 0.00 77 1014.3
20260510025913 19 157 0.0 0.0 0.00 0.00 0.00 75 1014.2
20260510025410 19 156 0.0 0.0 0.00 0.00 0.00 76 1014.1
20260510024908 19 156 0.0 0.0 0.00 0.00 0.00 77 1014.1
20260510024404 20 153 1.6 1.6 0.00 0.00 0.00 74 1013.7
20260510023900 20 143 0.0 0.0 0.00 0.00 0.00 77 1013.5
20260510023356 20 143 0.0 0.0 0.00 0.00 0.00 77 1013.3
20260510022854 20 142 0.0 0.0 0.00 0.00 0.00 74 1013.2
20260510022353 20 142 0.0 0.0 0.00 0.00 0.00 72 1012.9
20260510021852 20 142 0.0 0.0 0.00 0.00 0.00 74 1012.8
20260510021350 20 142 0.0 0.0 0.00 0.00 0.00 74 1012.7
20260510020846 20 142 0.0 1.6 0.00 0.00 0.00 73 1012.5
20260510020346 20 146 0.0 1.6 0.00 0.00 0.00 70 1012.5
20260510015842 21 147 0.0 0.0 0.00 0.00 0.00 69 1012.2
20260510015338 21 147 0.0 0.0 0.00 0.00 0.00 67 1012.4
20260510014833 21 147 0.0 0.0 0.00 0.00 0.00 66 1012.1
20260510014331 21 147 0.0 0.0 0.00 0.00 0.00 65 1012.1
20260510013827 22 147 0.0 0.0 0.00 0.00 0.00 65 1012.2
20260510013323 22 147 0.0 0.0 0.00 0.00 0.00 62 1012.0
20260510012818 22 148 0.0 0.0 0.00 0.00 0.00 59 1011.8
20260510012317 23 148 0.0 0.0 0.00 0.00 0.00 56 1012.0
20260510011813 23 148 0.0 0.0 0.00 0.00 0.00 53 1011.8
20260510011308 24 148 0.0 0.0 0.00 0.00 0.00 52 1011.9
20260510010805 24 153 1.6 3.2 0.00 0.00 0.00 51 1011.9
20260510010303 25 153 0.0 1.6 0.00 0.00 0.00 50 1011.7
20260510005759 25 154 1.6 3.2 0.00 0.00 0.00 50 1011.7
20260510005255 25 155 1.6 3.2 0.00 0.00 0.00 51 1011.7
20260510004753 25 145 1.6 1.6 0.00 0.00 0.00 50 1011.6
20260510004250 25 142 0.0 3.2 0.00 0.00 0.00 48 1011.6
20260510003748 25 138 0.0 3.2 0.00 0.00 0.00 48 1011.4
20260510003244 26 138 1.6 4.8 0.00 0.00 0.00 46 1011.4
20260510002743 26 136 0.0 4.8 0.00 0.00 0.00 46 1011.6
20260510002241 26 138 0.0 1.6 0.00 0.00 0.00 46 1011.3
20260510001737 26 137 0.0 1.6 0.00 0.00 0.00 45 1011.5
20260510001236 26 123 4.8 6.4 0.00 0.00 0.00 44 1011.6
20260510000731 26 86 4.8 9.7 0.00 0.00 0.00 44 1011.5
20260510000229 26 124 4.8 6.4 0.00 0.00 0.00 43 1011.4
20260509235725 26 150 0.0 6.4 0.00 0.00 0.00 46 1011.3
20260509235222 26 141 1.6 6.4 0.00 0.00 0.00 44 1011.5
20260509234718 27 150 1.6 6.4 0.00 0.00 0.00 45 1011.5
20260509234215 27 158 1.6 9.7 0.00 0.00 0.00 47 1011.5
20260509233713 27 138 3.2 6.4 0.00 0.00 0.00 45 1011.6
20260509233205 27 135 3.2 9.7 0.00 0.00 0.00 46 1011.7
20260509232701 27 158 3.2 6.4 0.00 0.00 0.00 45 1011.5
20260509232158 27 137 6.4 9.7 0.00 0.00 0.00 44 1011.6
20260509231655 27 126 1.6 6.4 0.00 0.00 0.00 44 1011.8
20260509231152 27 146 4.8 9.7 0.00 0.00 0.00 43 1012.0
20260509230649 27 115 4.8 6.4 0.00 0.00 0.00 41 1011.9
20260509230146 27 164 6.4 16.1 0.00 0.00 0.00 41 1011.8
20260509225641 27 154 3.2 4.8 0.00 0.00 0.00 40 1011.7
20260509225137 27 103 6.4 11.3 0.00 0.00 0.00 38 1011.8
20260509224633 27 172 1.6 4.8 0.00 0.00 0.00 41 1012.0
20260509224130 27 132 3.2 9.7 0.00 0.00 0.00 38 1012.0
20260509223627 27 126 6.4 6.4 0.00 0.00 0.00 38 1012.0
20260509223124 27 128 3.2 4.8 0.00 0.00 0.00 36 1012.1
20260509222621 27 132 1.6 9.7 0.00 0.00 0.00 36 1012.1
20260509222116 27 164 6.4 6.4 0.00 0.00 0.00 36 1012.1
20260509221612 27 123 4.8 6.4 0.00 0.00 0.00 36 1012.1
20260509221109 27 128 9.7 12.9 0.00 0.00 0.00 34 1012.1
20260509220604 27 143 4.8 6.4 0.00 0.00 0.00 35 1012.1
20260509215556 27 155 0.0 9.7 0.00 0.00 0.00 36 1012.2
20260509215054 27 135 1.6 6.4 0.00 0.00 0.00 33 1012.3
20260509214551 27 134 3.2 6.4 0.00 0.00 0.00 35 1012.3
20260509214048 27 72 4.8 9.7 0.00 0.00 0.00 35 1012.2
20260509213544 27 140 4.8 4.8 0.00 0.00 0.00 36 1012.2
20260509213041 27 81 6.4 9.7 0.00 0.00 0.00 39 1012.1
20260509212538 27 102 1.6 3.2 0.00 0.00 0.00 36 1012.3
20260509212035 27 135 1.6 9.7 0.00 0.00 0.00 38 1012.5
20260509211530 27 123 8.0 11.3 0.00 0.00 0.00 38 1012.6
20260509211027 27 151 3.2 11.3 0.00 0.00 0.00 39 1012.6
20260509210524 27 121 8.0 11.3 0.00 0.00 0.00 38 1012.5
20260509210020 27 176 3.2 4.8 0.00 0.00 0.00 39 1012.7
20260509205515 28 38 4.8 9.7 0.00 0.00 0.00 33 1012.8
20260509205010 27 127 1.6 6.4 0.00 0.00 0.00 40 1012.8
20260509204507 27 154 0.0 1.6 0.00 0.00 0.00 43 1012.7
20260509204003 27 90 6.4 9.7 0.00 0.00 0.00 38 1012.8
20260509203459 27 145 1.6 6.4 0.00 0.00 0.00 41 1012.7
20260509202957 27 127 1.6 3.2 0.00 0.00 0.00 37 1013.0
20260509202453 27 25 3.2 6.4 0.00 0.00 0.00 35 1013.0
20260509201948 27 67 4.8 6.4 0.00 0.00 0.00 38 1013.1
20260509201443 27 118 1.6 9.7 0.00 0.00 0.00 36 1013.1
20260509200940 27 166 3.2 6.4 0.00 0.00 0.00 41 1013.0
20260509200440 27 85 4.8 9.7 0.00 0.00 0.00 42 1013.2
20260509195937 27 135 3.2 9.7 0.00 0.00 0.00 44 1013.2
20260509195433 27 173 3.2 6.4 0.00 0.00 0.00 45 1013.4
20260509194932 27 154 1.6 6.4 0.00 0.00 0.00 45 1013.4
20260509194428 27 198 3.2 4.8 0.00 0.00 0.00 37 1013.4
20260509193926 27 159 3.2 9.7 0.00 0.00 0.00 45 1013.6
20260509193425 27 138 1.6 9.7 0.00 0.00 0.00 40 1013.6
20260509192921 27 141 3.2 11.3 0.00 0.00 0.00 47 1013.4
20260509192418 26 174 4.8 4.8 0.00 0.00 0.00 42 1013.6
20260509191913 27 197 4.8 9.7 0.00 0.00 0.00 43 1013.4
20260509191409 27 143 4.8 6.4 0.00 0.00 0.00 38 1013.6
20260509190905 27 126 3.2 9.7 0.00 0.00 0.00 37 1013.5
20260509190402 26 132 0.0 3.2 0.00 0.00 0.00 43 1013.6
20260509185900 27 191 1.6 6.4 0.00 0.00 0.00 49 1013.4
20260509185356 26 123 6.4 6.4 0.00 0.00 0.00 41 1013.6
20260509184853 26 192 1.6 4.8 0.00 0.00 0.00 43 1013.6
20260509184350 26 170 1.6 4.8 0.00 0.00 0.00 43 1013.5
20260509183847 25 217 4.8 4.8 0.00 0.00 0.00 44 1013.7
20260509183342 26 125 3.2 9.7 0.00 0.00 0.00 44 1013.6
20260509182838 26 191 3.2 4.8 0.00 0.00 0.00 41 1013.8
20260509182335 26 152 3.2 11.3 0.00 0.00 0.00 42 1013.8
20260509181833 26 155 8.0 11.3 0.00 0.00 0.00 42 1013.9
20260509181330 25 156 0.0 4.8 0.00 0.00 0.00 55 1014.0
20260509180827 25 172 3.2 4.8 0.00 0.00 0.00 50 1014.0
20260509180323 25 190 0.0 1.6 0.00 0.00 0.00 53 1014.0
20260509175820 25 187 3.2 4.8 0.00 0.00 0.00 53 1014.1
20260509175316 25 186 3.2 4.8 0.00 0.00 0.00 59 1014.2
20260509174812 24 163 3.2 4.8 0.00 0.00 0.00 60 1014.2
20260509174308 25 138 6.4 6.4 0.00 0.00 0.00 52 1014.1
20260509173804 23 136 3.2 3.2 0.00 0.00 0.00 63 1014.0
20260509173300 24 166 6.4 11.3 0.00 0.00 0.00 66 1014.4
20260509172756 25 169 6.4 6.4 0.00 0.00 0.00 65 1014.4
20260509172253 24 194 3.2 4.8 0.00 0.00 0.00 68 1014.5
20260509171748 23 216 3.2 4.8 0.00 0.00 0.00 73 1014.6
20260509171245 23 204 4.8 6.4 0.00 0.00 0.00 71 1014.5
20260509170741 24 158 4.8 6.4 0.00 0.00 0.00 69 1014.7
20260509170237 22 118 1.6 3.2 0.00 0.00 0.00 69 1014.6
20260509165736 23 198 3.2 6.4 0.00 0.00 0.00 72 1014.8
20260509165231 23 149 0.0 4.8 0.00 0.00 0.00 75 1014.6
20260509164728 23 175 3.2 9.7 0.00 0.00 0.00 77 1014.7
20260509164223 22 171 1.6 4.8 0.00 0.00 0.00 79 1014.9
20260509163721 22 178 1.6 4.8 0.00 0.00 0.00 75 1014.7
20260509163217 22 168 1.6 4.8 0.00 0.00 0.00 80 1014.6
20260509162715 22 217 4.8 9.7 0.00 0.00 0.00 77 1014.5
20260509162210 22 194 1.6 4.8 0.00 0.00 0.00 79 1014.6
20260509161706 21 156 0.0 3.2 0.00 0.00 0.00 80 1014.6
20260509161202 21 164 1.6 1.6 0.00 0.00 0.00 82 1014.7
20260509160657 21 132 1.6 4.8 0.00 0.00 0.00 81 1014.7
20260509160154 21 187 0.0 1.6 0.00 0.00 0.00 82 1014.7
20260509155649 21 180 1.6 4.8 0.00 0.00 0.00 83 1014.6
20260509155146 20 135 0.0 3.2 0.00 0.00 0.00 85 1014.5
20260509154642 20 172 1.6 4.8 0.00 0.00 0.00 87 1014.5
20260509154139 20 156 1.6 9.7 0.00 0.00 0.00 88 1014.5
20260509153636 20 199 3.2 6.4 0.00 0.00 0.00 86 1014.5
20260509153133 20 165 0.0 1.6 0.00 0.00 0.00 88 1014.5
20260509152628 20 164 0.0 1.6 0.00 0.00 0.00 87 1014.6
20260509152126 19 170 0.0 1.6 0.00 0.00 0.00 90 1014.7
20260509151622 18 144 0.0 1.6 0.00 0.00 0.00 90 1014.8
20260509151120 18 165 0.0 3.2 0.00 0.00 0.00 92 1014.6
20260509150618 17 160 0.0 3.2 0.00 0.00 0.00 93 1014.7
20260509150116 17 186 1.6 3.2 0.00 0.00 0.00 93 1014.7
20260509145611 16 172 0.0 3.2 0.00 0.00 0.00 97 1014.6
20260509145107 15 145 0.0 1.6 0.00 0.00 0.00 99 1014.6
20260509144604 15 147 0.0 3.2 0.00 0.00 0.00 99 1014.7
20260509144101 15 174 1.6 3.2 0.00 0.00 0.00 99 1014.6
20260509143558 15 159 1.6 3.2 0.00 0.00 0.00 99 1014.7
20260509143055 16 160 1.6 3.2 0.00 0.00 0.00 99 1014.7